Terug naar catalogus

COSMOS 2350

ActiefMilitairGEO
NORAD 25315·PAYLOAD·🇷🇺 Russia

Gelanceerd Apr 29, 1998 vanaf Baikonur Cosmodrome

Loading…

TLE

VersSource: Space-Track

Epoch: Sep 14, 2026, 19:19 UTC

1 25315U 98025A   26257.80491440 -.00000169  00000-0  00000-0 0  9999
2 25315  13.9956   3.1796 0007116 176.7484 184.1747  1.00279055103914

Volg COSMOS 2350 in realtime met AllMySat

Download on the App Store